Index of /20260503/WXO-DD/model_rdps/10km/12/007
Name Last modified Size Description
Parent Directory -
20260503T12Z_MSC_RDPS_AbsoluteVorticity_IsbL-0250_RLatLon0.09_PT007H.grib2 2026-05-03 14:54 620K
20260503T12Z_MSC_RDPS_AbsoluteVorticity_IsbL-0500_RLatLon0.09_PT007H.grib2 2026-05-03 14:54 568K
20260503T12Z_MSC_RDPS_AbsoluteVorticity_IsbL-0700_RLatLon0.09_PT007H.grib2 2026-05-03 14:54 626K
20260503T12Z_MSC_RDPS_AbsoluteVorticity_IsbL-0850_RLatLon0.09_PT007H.grib2 2026-05-03 14:54 793K
20260503T12Z_MSC_RDPS_AirTemp_AGL-120m_RLatLon0.09_PT007H.grib2 2026-05-03 14:54 395K
20260503T12Z_MSC_RDPS_AirTemp_AGL-2m_RLatLon0.09_PT007H.grib2 2026-05-03 14:54 630K
20260503T12Z_MSC_RDPS_AirTemp_AGL-40m_RLatLon0.09_PT007H.grib2 2026-05-03 14:54 403K
20260503T12Z_MSC_RDPS_AirTemp_AGL-80m_RLatLon0.09_PT007H.grib2 2026-05-03 14:54 398K
20260503T12Z_MSC_RDPS_AirTemp_IsbL-0001_RLatLon0.09_PT007H.grib2 2026-05-03 14:54 281K
20260503T12Z_MSC_RDPS_AirTemp_IsbL-0005_RLatLon0.09_PT007H.grib2 2026-05-03 14:54 279K
20260503T12Z_MSC_RDPS_AirTemp_IsbL-0010_RLatLon0.09_PT007H.grib2 2026-05-03 14:54 289K
20260503T12Z_MSC_RDPS_AirTemp_IsbL-0020_RLatLon0.09_PT007H.grib2 2026-05-03 14:54 305K
20260503T12Z_MSC_RDPS_AirTemp_IsbL-0030_RLatLon0.09_PT007H.grib2 2026-05-03 14:54 327K
20260503T12Z_MSC_RDPS_AirTemp_IsbL-0050_RLatLon0.09_PT007H.grib2 2026-05-03 14:54 307K
20260503T12Z_MSC_RDPS_AirTemp_IsbL-0100_RLatLon0.09_PT007H.grib2 2026-05-03 14:54 385K
20260503T12Z_MSC_RDPS_AirTemp_IsbL-0150_RLatLon0.09_PT007H.grib2 2026-05-03 14:54 415K
20260503T12Z_MSC_RDPS_AirTemp_IsbL-0175_RLatLon0.09_PT007H.grib2 2026-05-03 14:54 407K
20260503T12Z_MSC_RDPS_AirTemp_IsbL-0200_RLatLon0.09_PT007H.grib2 2026-05-03 14:54 417K
20260503T12Z_MSC_RDPS_AirTemp_IsbL-0225_RLatLon0.09_PT007H.grib2 2026-05-03 14:54 421K
20260503T12Z_MSC_RDPS_AirTemp_IsbL-0250_RLatLon0.09_PT007H.grib2 2026-05-03 14:54 428K
20260503T12Z_MSC_RDPS_AirTemp_IsbL-0275_RLatLon0.09_PT007H.grib2 2026-05-03 14:54 407K
20260503T12Z_MSC_RDPS_AirTemp_IsbL-0300_RLatLon0.09_PT007H.grib2 2026-05-03 14:54 411K
20260503T12Z_MSC_RDPS_AirTemp_IsbL-0350_RLatLon0.09_PT007H.grib2 2026-05-03 14:54 425K
20260503T12Z_MSC_RDPS_AirTemp_IsbL-0400_RLatLon0.09_PT007H.grib2 2026-05-03 14:54 428K
20260503T12Z_MSC_RDPS_AirTemp_IsbL-0450_RLatLon0.09_PT007H.grib2 2026-05-03 14:54 436K
20260503T12Z_MSC_RDPS_AirTemp_IsbL-0500_RLatLon0.09_PT007H.grib2 2026-05-03 14:54 413K
20260503T12Z_MSC_RDPS_AirTemp_IsbL-0550_RLatLon0.09_PT007H.grib2 2026-05-03 14:54 430K
20260503T12Z_MSC_RDPS_AirTemp_IsbL-0600_RLatLon0.09_PT007H.grib2 2026-05-03 14:54 450K
20260503T12Z_MSC_RDPS_AirTemp_IsbL-0650_RLatLon0.09_PT007H.grib2 2026-05-03 14:54 466K
20260503T12Z_MSC_RDPS_AirTemp_IsbL-0700_RLatLon0.09_PT007H.grib2 2026-05-03 14:54 492K
20260503T12Z_MSC_RDPS_AirTemp_IsbL-0750_RLatLon0.09_PT007H.grib2 2026-05-03 14:54 418K
20260503T12Z_MSC_RDPS_AirTemp_IsbL-0800_RLatLon0.09_PT007H.grib2 2026-05-03 14:54 462K
20260503T12Z_MSC_RDPS_AirTemp_IsbL-0850_RLatLon0.09_PT007H.grib2 2026-05-03 14:54 509K
20260503T12Z_MSC_RDPS_AirTemp_IsbL-0875_RLatLon0.09_PT007H.grib2 2026-05-03 14:54 524K
20260503T12Z_MSC_RDPS_AirTemp_IsbL-0900_RLatLon0.09_PT007H.grib2 2026-05-03 14:54 531K
20260503T12Z_MSC_RDPS_AirTemp_IsbL-0925_RLatLon0.09_PT007H.grib2 2026-05-03 14:54 526K
20260503T12Z_MSC_RDPS_AirTemp_IsbL-0950_RLatLon0.09_PT007H.grib2 2026-05-03 14:54 529K
20260503T12Z_MSC_RDPS_AirTemp_IsbL-0970_RLatLon0.09_PT007H.grib2 2026-05-03 14:54 525K
20260503T12Z_MSC_RDPS_AirTemp_IsbL-0985_RLatLon0.09_PT007H.grib2 2026-05-03 14:54 517K
20260503T12Z_MSC_RDPS_AirTemp_IsbL-1000_RLatLon0.09_PT007H.grib2 2026-05-03 14:54 501K
20260503T12Z_MSC_RDPS_AirTemp_IsbL-1015_RLatLon0.09_PT007H.grib2 2026-05-03 14:54 499K
20260503T12Z_MSC_RDPS_Albedo_Sfc_RLatLon0.09_PT007H.grib2 2026-05-03 14:54 158K
20260503T12Z_MSC_RDPS_CAPE_Sfc_RLatLon0.09_PT007H.grib2 2026-05-03 14:54 1.7M
20260503T12Z_MSC_RDPS_CIN_Sfc_RLatLon0.09_PT007H.grib2 2026-05-03 14:54 1.3M
20260503T12Z_MSC_RDPS_CloudWater_EAtm_RLatLon0.09_PT007H.grib2 2026-05-03 14:54 221K
20260503T12Z_MSC_RDPS_ConvectivePrecip-Accum_Sfc_RLatLon0.09_PT007H.grib2 2026-05-03 14:54 547K
20260503T12Z_MSC_RDPS_DewPointDepression_AGL-2m_RLatLon0.09_PT007H.grib2 2026-05-03 14:54 425K
20260503T12Z_MSC_RDPS_DewPointDepression_IsbL-0001_RLatLon0.09_PT007H.grib2 2026-05-03 14:54 193
20260503T12Z_MSC_RDPS_DewPointDepression_IsbL-0005_RLatLon0.09_PT007H.grib2 2026-05-03 14:54 193
20260503T12Z_MSC_RDPS_DewPointDepression_IsbL-0010_RLatLon0.09_PT007H.grib2 2026-05-03 14:54 193
20260503T12Z_MSC_RDPS_DewPointDepression_IsbL-0020_RLatLon0.09_PT007H.grib2 2026-05-03 14:54 193
20260503T12Z_MSC_RDPS_DewPointDepression_IsbL-0030_RLatLon0.09_PT007H.grib2 2026-05-03 14:54 193
20260503T12Z_MSC_RDPS_DewPointDepression_IsbL-0050_RLatLon0.09_PT007H.grib2 2026-05-03 14:54 75K
20260503T12Z_MSC_RDPS_DewPointDepression_IsbL-0100_RLatLon0.09_PT007H.grib2 2026-05-03 14:54 117K
20260503T12Z_MSC_RDPS_DewPointDepression_IsbL-0150_RLatLon0.09_PT007H.grib2 2026-05-03 14:54 150K
20260503T12Z_MSC_RDPS_DewPointDepression_IsbL-0175_RLatLon0.09_PT007H.grib2 2026-05-03 14:54 188K
20260503T12Z_MSC_RDPS_DewPointDepression_IsbL-0200_RLatLon0.09_PT007H.grib2 2026-05-03 14:54 228K
20260503T12Z_MSC_RDPS_DewPointDepression_IsbL-0225_RLatLon0.09_PT007H.grib2 2026-05-03 14:54 267K
20260503T12Z_MSC_RDPS_DewPointDepression_IsbL-0250_RLatLon0.09_PT007H.grib2 2026-05-03 14:54 302K
20260503T12Z_MSC_RDPS_DewPointDepression_IsbL-0275_RLatLon0.09_PT007H.grib2 2026-05-03 14:54 311K
20260503T12Z_MSC_RDPS_DewPointDepression_IsbL-0300_RLatLon0.09_PT007H.grib2 2026-05-03 14:54 328K
20260503T12Z_MSC_RDPS_DewPointDepression_IsbL-0350_RLatLon0.09_PT007H.grib2 2026-05-03 14:54 335K
20260503T12Z_MSC_RDPS_DewPointDepression_IsbL-0400_RLatLon0.09_PT007H.grib2 2026-05-03 14:54 341K
20260503T12Z_MSC_RDPS_DewPointDepression_IsbL-0450_RLatLon0.09_PT007H.grib2 2026-05-03 14:54 344K
20260503T12Z_MSC_RDPS_DewPointDepression_IsbL-0500_RLatLon0.09_PT007H.grib2 2026-05-03 14:54 348K
20260503T12Z_MSC_RDPS_DewPointDepression_IsbL-0550_RLatLon0.09_PT007H.grib2 2026-05-03 14:54 359K
20260503T12Z_MSC_RDPS_DewPointDepression_IsbL-0600_RLatLon0.09_PT007H.grib2 2026-05-03 14:54 368K
20260503T12Z_MSC_RDPS_DewPointDepression_IsbL-0650_RLatLon0.09_PT007H.grib2 2026-05-03 14:54 378K
20260503T12Z_MSC_RDPS_DewPointDepression_IsbL-0700_RLatLon0.09_PT007H.grib2 2026-05-03 14:54 392K
20260503T12Z_MSC_RDPS_DewPointDepression_IsbL-0750_RLatLon0.09_PT007H.grib2 2026-05-03 14:54 415K
20260503T12Z_MSC_RDPS_DewPointDepression_IsbL-0800_RLatLon0.09_PT007H.grib2 2026-05-03 14:54 452K
20260503T12Z_MSC_RDPS_DewPointDepression_IsbL-0850_RLatLon0.09_PT007H.grib2 2026-05-03 14:54 478K
20260503T12Z_MSC_RDPS_DewPointDepression_IsbL-0875_RLatLon0.09_PT007H.grib2 2026-05-03 14:54 475K
20260503T12Z_MSC_RDPS_DewPointDepression_IsbL-0900_RLatLon0.09_PT007H.grib2 2026-05-03 14:54 465K
20260503T12Z_MSC_RDPS_DewPointDepression_IsbL-0925_RLatLon0.09_PT007H.grib2 2026-05-03 14:54 454K
20260503T12Z_MSC_RDPS_DewPointDepression_IsbL-0950_RLatLon0.09_PT007H.grib2 2026-05-03 14:54 449K
20260503T12Z_MSC_RDPS_DewPointDepression_IsbL-0970_RLatLon0.09_PT007H.grib2 2026-05-03 14:54 444K
20260503T12Z_MSC_RDPS_DewPointDepression_IsbL-0985_RLatLon0.09_PT007H.grib2 2026-05-03 14:54 439K
20260503T12Z_MSC_RDPS_DewPointDepression_IsbL-1000_RLatLon0.09_PT007H.grib2 2026-05-03 14:54 434K
20260503T12Z_MSC_RDPS_DewPointDepression_IsbL-1015_RLatLon0.09_PT007H.grib2 2026-05-03 14:54 426K
20260503T12Z_MSC_RDPS_DewPoint_AGL-2m_RLatLon0.09_PT007H.grib2 2026-05-03 14:54 315K
20260503T12Z_MSC_RDPS_DownwardLongwaveRadiationFlux-Accum_Sfc_RLatLon0.09_PT007H.grib2 2026-05-03 14:54 529K
20260503T12Z_MSC_RDPS_DownwardShortwaveRadiationFlux-Accum_NTAtm_RLatLon0.09_PT007H.grib2 2026-05-03 14:54 117K
20260503T12Z_MSC_RDPS_DownwardShortwaveRadiationFlux-Accum_Sfc_RLatLon0.09_PT007H.grib2 2026-05-03 14:54 491K
20260503T12Z_MSC_RDPS_FreezingRain-Accum1h_Sfc_RLatLon0.09_PT007H.grib2 2026-05-03 14:54 11K
20260503T12Z_MSC_RDPS_FreezingRain-Accum_Sfc_RLatLon0.09_PT007H.grib2 2026-05-03 14:54 44K
20260503T12Z_MSC_RDPS_GeopotentialHeight_IsbL-0001_RLatLon0.09_PT007H.grib2 2026-05-03 14:54 323K
20260503T12Z_MSC_RDPS_GeopotentialHeight_IsbL-0005_RLatLon0.09_PT007H.grib2 2026-05-03 14:54 306K
20260503T12Z_MSC_RDPS_GeopotentialHeight_IsbL-0010_RLatLon0.09_PT007H.grib2 2026-05-03 14:54 306K
20260503T12Z_MSC_RDPS_GeopotentialHeight_IsbL-0020_RLatLon0.09_PT007H.grib2 2026-05-03 14:54 402K
20260503T12Z_MSC_RDPS_GeopotentialHeight_IsbL-0030_RLatLon0.09_PT007H.grib2 2026-05-03 14:54 405K
20260503T12Z_MSC_RDPS_GeopotentialHeight_IsbL-0050_RLatLon0.09_PT007H.grib2 2026-05-03 14:54 311K
20260503T12Z_MSC_RDPS_GeopotentialHeight_IsbL-0100_RLatLon0.09_PT007H.grib2 2026-05-03 14:54 289K
20260503T12Z_MSC_RDPS_GeopotentialHeight_IsbL-0150_RLatLon0.09_PT007H.grib2 2026-05-03 14:54 232K
20260503T12Z_MSC_RDPS_GeopotentialHeight_IsbL-0175_RLatLon0.09_PT007H.grib2 2026-05-03 14:54 235K
20260503T12Z_MSC_RDPS_GeopotentialHeight_IsbL-0200_RLatLon0.09_PT007H.grib2 2026-05-03 14:54 267K
20260503T12Z_MSC_RDPS_GeopotentialHeight_IsbL-0225_RLatLon0.09_PT007H.grib2 2026-05-03 14:54 268K
20260503T12Z_MSC_RDPS_GeopotentialHeight_IsbL-0250_RLatLon0.09_PT007H.grib2 2026-05-03 14:54 268K
20260503T12Z_MSC_RDPS_GeopotentialHeight_IsbL-0275_RLatLon0.09_PT007H.grib2 2026-05-03 14:54 238K
20260503T12Z_MSC_RDPS_GeopotentialHeight_IsbL-0300_RLatLon0.09_PT007H.grib2 2026-05-03 14:54 237K
20260503T12Z_MSC_RDPS_GeopotentialHeight_IsbL-0350_RLatLon0.09_PT007H.grib2 2026-05-03 14:54 232K
20260503T12Z_MSC_RDPS_GeopotentialHeight_IsbL-0400_RLatLon0.09_PT007H.grib2 2026-05-03 14:54 230K
20260503T12Z_MSC_RDPS_GeopotentialHeight_IsbL-0450_RLatLon0.09_PT007H.grib2 2026-05-03 14:54 299K
20260503T12Z_MSC_RDPS_GeopotentialHeight_IsbL-0500_RLatLon0.09_PT007H.grib2 2026-05-03 14:54 294K
20260503T12Z_MSC_RDPS_GeopotentialHeight_IsbL-0550_RLatLon0.09_PT007H.grib2 2026-05-03 14:54 290K
20260503T12Z_MSC_RDPS_GeopotentialHeight_IsbL-0600_RLatLon0.09_PT007H.grib2 2026-05-03 14:54 287K
20260503T12Z_MSC_RDPS_GeopotentialHeight_IsbL-0650_RLatLon0.09_PT007H.grib2 2026-05-03 14:54 259K
20260503T12Z_MSC_RDPS_GeopotentialHeight_IsbL-0700_RLatLon0.09_PT007H.grib2 2026-05-03 14:54 259K
20260503T12Z_MSC_RDPS_GeopotentialHeight_IsbL-0750_RLatLon0.09_PT007H.grib2 2026-05-03 14:54 346K
20260503T12Z_MSC_RDPS_GeopotentialHeight_IsbL-0800_RLatLon0.09_PT007H.grib2 2026-05-03 14:54 353K
20260503T12Z_MSC_RDPS_GeopotentialHeight_IsbL-0850_RLatLon0.09_PT007H.grib2 2026-05-03 14:54 360K
20260503T12Z_MSC_RDPS_GeopotentialHeight_IsbL-0875_RLatLon0.09_PT007H.grib2 2026-05-03 14:54 360K
20260503T12Z_MSC_RDPS_GeopotentialHeight_IsbL-0900_RLatLon0.09_PT007H.grib2 2026-05-03 14:54 366K
20260503T12Z_MSC_RDPS_GeopotentialHeight_IsbL-0925_RLatLon0.09_PT007H.grib2 2026-05-03 14:54 370K
20260503T12Z_MSC_RDPS_GeopotentialHeight_IsbL-0950_RLatLon0.09_PT007H.grib2 2026-05-03 14:54 374K
20260503T12Z_MSC_RDPS_GeopotentialHeight_IsbL-0970_RLatLon0.09_PT007H.grib2 2026-05-03 14:54 380K
20260503T12Z_MSC_RDPS_GeopotentialHeight_IsbL-0985_RLatLon0.09_PT007H.grib2 2026-05-03 14:54 389K
20260503T12Z_MSC_RDPS_GeopotentialHeight_IsbL-1000_RLatLon0.09_PT007H.grib2 2026-05-03 14:54 402K
20260503T12Z_MSC_RDPS_GeopotentialHeight_IsbL-1015_RLatLon0.09_PT007H.grib2 2026-05-03 14:54 416K
20260503T12Z_MSC_RDPS_Humidex_Sfc_RLatLon0.09_PT007H.grib2 2026-05-03 14:54 2.4M
20260503T12Z_MSC_RDPS_IcePellets-Accum1h_Sfc_RLatLon0.09_PT007H.grib2 2026-05-03 14:54 2.4K
20260503T12Z_MSC_RDPS_IcePellets-Accum_Sfc_RLatLon0.09_PT007H.grib2 2026-05-03 14:54 4.6K
20260503T12Z_MSC_RDPS_KIndex_Sfc_RLatLon0.09_PT007H.grib2 2026-05-03 14:54 2.5M
20260503T12Z_MSC_RDPS_LatentHeatNetFlux_Sfc_RLatLon0.09_PT007H.grib2 2026-05-03 14:54 314K
20260503T12Z_MSC_RDPS_LiftedIndex-MU-VT_IsbL-0500_RLatLon0.09_PT007H.grib2 2026-05-03 14:54 2.4M
20260503T12Z_MSC_RDPS_NetLongwaveRadiationFlux-Accum_Sfc_RLatLon0.09_PT007H.grib2 2026-05-03 14:54 547K
20260503T12Z_MSC_RDPS_NetShortwaveRadiationFlux-Accum_Sfc_RLatLon0.09_PT007H.grib2 2026-05-03 14:54 486K
20260503T12Z_MSC_RDPS_PlanetaryBoundaryLayerHeight_Sfc_RLatLon0.09_PT007H.grib2 2026-05-03 14:54 1.0M
20260503T12Z_MSC_RDPS_Precip-Accum1h_Sfc_RLatLon0.09_PT007H.grib2 2026-05-03 14:54 1.2M
20260503T12Z_MSC_RDPS_Precip-Accum_Sfc_RLatLon0.09_PT007H.grib2 2026-05-03 14:54 1.6M
20260503T12Z_MSC_RDPS_PrecipRate_Sfc_RLatLon0.09_PT007H.grib2 2026-05-03 14:54 177K
20260503T12Z_MSC_RDPS_PrecipType-Instant_Sfc_RLatLon0.09_PT007H.grib2 2026-05-03 14:54 589K
20260503T12Z_MSC_RDPS_Pressure-Trend3h_Sfc_RLatLon0.09_PT007H.grib2 2026-05-03 14:54 1.1M
20260503T12Z_MSC_RDPS_Pressure_MSL_RLatLon0.09_PT007H.grib2 2026-05-03 14:54 331K
20260503T12Z_MSC_RDPS_Pressure_PVU-1.5_RLatLon0.09_PT007H.grib2 2026-05-03 14:54 2.3M
20260503T12Z_MSC_RDPS_Pressure_PVU-1_RLatLon0.09_PT007H.grib2 2026-05-03 14:54 2.4M
20260503T12Z_MSC_RDPS_Pressure_PVU-2_RLatLon0.09_PT007H.grib2 2026-05-03 14:54 2.4M
20260503T12Z_MSC_RDPS_Pressure_Sfc_RLatLon0.09_PT007H.grib2 2026-05-03 14:54 500K
20260503T12Z_MSC_RDPS_RadiativeTemp_Sfc_RLatLon0.09_PT007H.grib2 2026-05-03 14:54 328K
20260503T12Z_MSC_RDPS_Rain-Accum1h_Sfc_RLatLon0.09_PT007H.grib2 2026-05-03 14:54 617K
20260503T12Z_MSC_RDPS_Rain-Accum_Sfc_RLatLon0.09_PT007H.grib2 2026-05-03 14:54 1.2M
20260503T12Z_MSC_RDPS_RelativeHumidity_AGL-2m_RLatLon0.09_PT007H.grib2 2026-05-03 14:54 1.0M
20260503T12Z_MSC_RDPS_RelativeHumidity_IsbL-0010_RLatLon0.09_PT007H.grib2 2026-05-03 14:54 625K
20260503T12Z_MSC_RDPS_RelativeHumidity_IsbL-0020_RLatLon0.09_PT007H.grib2 2026-05-03 14:54 669K
20260503T12Z_MSC_RDPS_RelativeHumidity_IsbL-0030_RLatLon0.09_PT007H.grib2 2026-05-03 14:54 601K
20260503T12Z_MSC_RDPS_RelativeHumidity_IsbL-0050_RLatLon0.09_PT007H.grib2 2026-05-03 14:54 304K
20260503T12Z_MSC_RDPS_RelativeHumidity_IsbL-0100_RLatLon0.09_PT007H.grib2 2026-05-03 14:54 277K
20260503T12Z_MSC_RDPS_RelativeHumidity_IsbL-0150_RLatLon0.09_PT007H.grib2 2026-05-03 14:54 420K
20260503T12Z_MSC_RDPS_RelativeHumidity_IsbL-0175_RLatLon0.09_PT007H.grib2 2026-05-03 14:54 482K
20260503T12Z_MSC_RDPS_RelativeHumidity_IsbL-0200_RLatLon0.09_PT007H.grib2 2026-05-03 14:54 558K
20260503T12Z_MSC_RDPS_RelativeHumidity_IsbL-0225_RLatLon0.09_PT007H.grib2 2026-05-03 14:54 625K
20260503T12Z_MSC_RDPS_RelativeHumidity_IsbL-0250_RLatLon0.09_PT007H.grib2 2026-05-03 14:54 687K
20260503T12Z_MSC_RDPS_RelativeHumidity_IsbL-0275_RLatLon0.09_PT007H.grib2 2026-05-03 14:54 712K
20260503T12Z_MSC_RDPS_RelativeHumidity_IsbL-0300_RLatLon0.09_PT007H.grib2 2026-05-03 14:54 749K
20260503T12Z_MSC_RDPS_RelativeHumidity_IsbL-0350_RLatLon0.09_PT007H.grib2 2026-05-03 14:54 772K
20260503T12Z_MSC_RDPS_RelativeHumidity_IsbL-0400_RLatLon0.09_PT007H.grib2 2026-05-03 14:54 785K
20260503T12Z_MSC_RDPS_RelativeHumidity_IsbL-0450_RLatLon0.09_PT007H.grib2 2026-05-03 14:54 790K
20260503T12Z_MSC_RDPS_RelativeHumidity_IsbL-0500_RLatLon0.09_PT007H.grib2 2026-05-03 14:54 805K
20260503T12Z_MSC_RDPS_RelativeHumidity_IsbL-0550_RLatLon0.09_PT007H.grib2 2026-05-03 14:54 822K
20260503T12Z_MSC_RDPS_RelativeHumidity_IsbL-0600_RLatLon0.09_PT007H.grib2 2026-05-03 14:54 840K
20260503T12Z_MSC_RDPS_RelativeHumidity_IsbL-0650_RLatLon0.09_PT007H.grib2 2026-05-03 14:54 858K
20260503T12Z_MSC_RDPS_RelativeHumidity_IsbL-0700_RLatLon0.09_PT007H.grib2 2026-05-03 14:54 886K
20260503T12Z_MSC_RDPS_RelativeHumidity_IsbL-0750_RLatLon0.09_PT007H.grib2 2026-05-03 14:54 929K
20260503T12Z_MSC_RDPS_RelativeHumidity_IsbL-0800_RLatLon0.09_PT007H.grib2 2026-05-03 14:54 1.0M
20260503T12Z_MSC_RDPS_RelativeHumidity_IsbL-0850_RLatLon0.09_PT007H.grib2 2026-05-03 14:54 1.0M
20260503T12Z_MSC_RDPS_RelativeHumidity_IsbL-0875_RLatLon0.09_PT007H.grib2 2026-05-03 14:54 1.1M
20260503T12Z_MSC_RDPS_RelativeHumidity_IsbL-0900_RLatLon0.09_PT007H.grib2 2026-05-03 14:54 1.1M
20260503T12Z_MSC_RDPS_RelativeHumidity_IsbL-0925_RLatLon0.09_PT007H.grib2 2026-05-03 14:54 1.1M
20260503T12Z_MSC_RDPS_RelativeHumidity_IsbL-0950_RLatLon0.09_PT007H.grib2 2026-05-03 14:54 1.1M
20260503T12Z_MSC_RDPS_RelativeHumidity_IsbL-0970_RLatLon0.09_PT007H.grib2 2026-05-03 14:54 1.0M
20260503T12Z_MSC_RDPS_RelativeHumidity_IsbL-0985_RLatLon0.09_PT007H.grib2 2026-05-03 14:54 1.0M
20260503T12Z_MSC_RDPS_RelativeHumidity_IsbL-1000_RLatLon0.09_PT007H.grib2 2026-05-03 14:54 1.0M
20260503T12Z_MSC_RDPS_RelativeHumidity_IsbL-1015_RLatLon0.09_PT007H.grib2 2026-05-03 14:54 1.0M
20260503T12Z_MSC_RDPS_Runoff-Accum_Sfc_RLatLon0.09_PT007H.grib2 2026-05-03 14:54 52K
20260503T12Z_MSC_RDPS_SWEATIndex_Sfc_RLatLon0.09_PT007H.grib2 2026-05-03 14:54 2.5M
20260503T12Z_MSC_RDPS_SeeingIndex_EAtm_RLatLon0.09_PT007H.grib2 2026-05-03 14:54 1.0M
20260503T12Z_MSC_RDPS_SensibleHeatNetFlux_Sfc_RLatLon0.09_PT007H.grib2 2026-05-03 14:54 367K
20260503T12Z_MSC_RDPS_ShowalterIndex_IsbL-0500_RLatLon0.09_PT007H.grib2 2026-05-03 14:54 2.6M
20260503T12Z_MSC_RDPS_SkyTransparencyIndex_EAtm_RLatLon0.09_PT007H.grib2 2026-05-03 14:54 728K
20260503T12Z_MSC_RDPS_Snow-Accum1h_Sfc_RLatLon0.09_PT007H.grib2 2026-05-03 14:54 491K
20260503T12Z_MSC_RDPS_Snow-Accum_Sfc_RLatLon0.09_PT007H.grib2 2026-05-03 14:54 576K
20260503T12Z_MSC_RDPS_SnowDensity_Sfc_RLatLon0.09_PT007H.grib2 2026-05-03 14:54 164K
20260503T12Z_MSC_RDPS_SnowDepth_Sfc_RLatLon0.09_PT007H.grib2 2026-05-03 14:54 643K
20260503T12Z_MSC_RDPS_SoilTemp_DBS-0to10cm_RLatLon0.09_PT007H.grib2 2026-05-03 14:54 210K
20260503T12Z_MSC_RDPS_SoilTemp_Sfc_RLatLon0.09_PT007H.grib2 2026-05-03 14:54 297K
20260503T12Z_MSC_RDPS_SoilVolumetricIceContent_Sfc_RLatLon0.09_PT007H.grib2 2026-05-03 14:54 157K
20260503T12Z_MSC_RDPS_SoilVolumetricWaterContent_DBS-0to10cm_RLatLon0.09_PT007H.grib2 2026-05-03 14:54 273K
20260503T12Z_MSC_RDPS_SoilVolumetricWaterContent_DBS-0to1cm_RLatLon0.09_PT007H.grib2 2026-05-03 14:54 335K
20260503T12Z_MSC_RDPS_SpecificHumidity_AGL-120m_RLatLon0.09_PT007H.grib2 2026-05-03 14:54 497K
20260503T12Z_MSC_RDPS_SpecificHumidity_AGL-2m_RLatLon0.09_PT007H.grib2 2026-05-03 14:54 666K
20260503T12Z_MSC_RDPS_SpecificHumidity_AGL-40m_RLatLon0.09_PT007H.grib2 2026-05-03 14:54 502K
20260503T12Z_MSC_RDPS_SpecificHumidity_AGL-80m_RLatLon0.09_PT007H.grib2 2026-05-03 14:54 498K
20260503T12Z_MSC_RDPS_SpecificHumidity_IsbL-0001_RLatLon0.09_PT007H.grib2 2026-05-03 14:54 403K
20260503T12Z_MSC_RDPS_SpecificHumidity_IsbL-0005_RLatLon0.09_PT007H.grib2 2026-05-03 14:54 363K
20260503T12Z_MSC_RDPS_SpecificHumidity_IsbL-0010_RLatLon0.09_PT007H.grib2 2026-05-03 14:54 395K
20260503T12Z_MSC_RDPS_SpecificHumidity_IsbL-0020_RLatLon0.09_PT007H.grib2 2026-05-03 14:54 379K
20260503T12Z_MSC_RDPS_SpecificHumidity_IsbL-0030_RLatLon0.09_PT007H.grib2 2026-05-03 14:54 373K
20260503T12Z_MSC_RDPS_SpecificHumidity_IsbL-0050_RLatLon0.09_PT007H.grib2 2026-05-03 14:54 487K
20260503T12Z_MSC_RDPS_SpecificHumidity_IsbL-0100_RLatLon0.09_PT007H.grib2 2026-05-03 14:54 444K
20260503T12Z_MSC_RDPS_SpecificHumidity_IsbL-0150_RLatLon0.09_PT007H.grib2 2026-05-03 14:54 459K
20260503T12Z_MSC_RDPS_SpecificHumidity_IsbL-0175_RLatLon0.09_PT007H.grib2 2026-05-03 14:54 447K
20260503T12Z_MSC_RDPS_SpecificHumidity_IsbL-0200_RLatLon0.09_PT007H.grib2 2026-05-03 14:54 462K
20260503T12Z_MSC_RDPS_SpecificHumidity_IsbL-0225_RLatLon0.09_PT007H.grib2 2026-05-03 14:54 464K
20260503T12Z_MSC_RDPS_SpecificHumidity_IsbL-0250_RLatLon0.09_PT007H.grib2 2026-05-03 14:54 523K
20260503T12Z_MSC_RDPS_SpecificHumidity_IsbL-0275_RLatLon0.09_PT007H.grib2 2026-05-03 14:54 483K
20260503T12Z_MSC_RDPS_SpecificHumidity_IsbL-0300_RLatLon0.09_PT007H.grib2 2026-05-03 14:54 453K
20260503T12Z_MSC_RDPS_SpecificHumidity_IsbL-0350_RLatLon0.09_PT007H.grib2 2026-05-03 14:54 572K
20260503T12Z_MSC_RDPS_SpecificHumidity_IsbL-0400_RLatLon0.09_PT007H.grib2 2026-05-03 14:54 524K
20260503T12Z_MSC_RDPS_SpecificHumidity_IsbL-0450_RLatLon0.09_PT007H.grib2 2026-05-03 14:54 573K
20260503T12Z_MSC_RDPS_SpecificHumidity_IsbL-0500_RLatLon0.09_PT007H.grib2 2026-05-03 14:54 506K
20260503T12Z_MSC_RDPS_SpecificHumidity_IsbL-0550_RLatLon0.09_PT007H.grib2 2026-05-03 14:54 578K
20260503T12Z_MSC_RDPS_SpecificHumidity_IsbL-0600_RLatLon0.09_PT007H.grib2 2026-05-03 14:54 628K
20260503T12Z_MSC_RDPS_SpecificHumidity_IsbL-0650_RLatLon0.09_PT007H.grib2 2026-05-03 14:54 547K
20260503T12Z_MSC_RDPS_SpecificHumidity_IsbL-0700_RLatLon0.09_PT007H.grib2 2026-05-03 14:54 594K
20260503T12Z_MSC_RDPS_SpecificHumidity_IsbL-0750_RLatLon0.09_PT007H.grib2 2026-05-03 14:54 653K
20260503T12Z_MSC_RDPS_SpecificHumidity_IsbL-0800_RLatLon0.09_PT007H.grib2 2026-05-03 14:54 742K
20260503T12Z_MSC_RDPS_SpecificHumidity_IsbL-0850_RLatLon0.09_PT007H.grib2 2026-05-03 14:54 818K
20260503T12Z_MSC_RDPS_SpecificHumidity_IsbL-0875_RLatLon0.09_PT007H.grib2 2026-05-03 14:54 839K
20260503T12Z_MSC_RDPS_SpecificHumidity_IsbL-0900_RLatLon0.09_PT007H.grib2 2026-05-03 14:54 710K
20260503T12Z_MSC_RDPS_SpecificHumidity_IsbL-0925_RLatLon0.09_PT007H.grib2 2026-05-03 14:54 710K
20260503T12Z_MSC_RDPS_SpecificHumidity_IsbL-0950_RLatLon0.09_PT007H.grib2 2026-05-03 14:54 713K
20260503T12Z_MSC_RDPS_SpecificHumidity_IsbL-0970_RLatLon0.09_PT007H.grib2 2026-05-03 14:54 706K
20260503T12Z_MSC_RDPS_SpecificHumidity_IsbL-0985_RLatLon0.09_PT007H.grib2 2026-05-03 14:54 700K
20260503T12Z_MSC_RDPS_SpecificHumidity_IsbL-1000_RLatLon0.09_PT007H.grib2 2026-05-03 14:54 692K
20260503T12Z_MSC_RDPS_SpecificHumidity_IsbL-1015_RLatLon0.09_PT007H.grib2 2026-05-03 14:54 680K
20260503T12Z_MSC_RDPS_SpecificHumidity_Sfc_RLatLon0.09_PT007H.grib2 2026-05-03 14:54 344K
20260503T12Z_MSC_RDPS_StormRelativeHelicity_EtaL-10000_RLatLon0.09_PT007H.grib2 2026-05-03 14:54 1.0M
20260503T12Z_MSC_RDPS_StormSeverityIndex_EtaL-10000_RLatLon0.09_PT007H.grib2 2026-05-03 14:54 1.2M
20260503T12Z_MSC_RDPS_Thickness_IsbL-0850to0700_RLatLon0.09_PT007H.grib2 2026-05-03 14:54 179K
20260503T12Z_MSC_RDPS_Thickness_IsbL-1000to0500_RLatLon0.09_PT007H.grib2 2026-05-03 14:54 199K
20260503T12Z_MSC_RDPS_Thickness_IsbL-1000to0850_RLatLon0.09_PT007H.grib2 2026-05-03 14:54 189K
20260503T12Z_MSC_RDPS_TotalCloudCover_Sfc_RLatLon0.09_PT007H.grib2 2026-05-03 14:54 656K
20260503T12Z_MSC_RDPS_TotalTotalsIndex_Sfc_RLatLon0.09_PT007H.grib2 2026-05-03 14:54 2.4M
20260503T12Z_MSC_RDPS_UVIndex-ClearSky_Sfc_RLatLon0.09_PT007H.grib2 2026-05-03 14:54 226K
20260503T12Z_MSC_RDPS_UVIndex_Sfc_RLatLon0.09_PT007H.grib2 2026-05-03 14:54 530K
20260503T12Z_MSC_RDPS_UpwardLongwaveRadiationFlux_NTAtm_RLatLon0.09_PT007H.grib2 2026-05-03 14:54 388K
20260503T12Z_MSC_RDPS_UpwardShortwaveRadiationFlux_NTAtm_RLatLon0.09_PT007H.grib2 2026-05-03 14:54 561K
20260503T12Z_MSC_RDPS_VerticalVelocity_IsbL-0250_RLatLon0.09_PT007H.grib2 2026-05-03 14:54 437K
20260503T12Z_MSC_RDPS_VerticalVelocity_IsbL-0500_RLatLon0.09_PT007H.grib2 2026-05-03 14:54 545K
20260503T12Z_MSC_RDPS_VerticalVelocity_IsbL-0700_RLatLon0.09_PT007H.grib2 2026-05-03 14:54 604K
20260503T12Z_MSC_RDPS_VerticalVelocity_IsbL-0850_RLatLon0.09_PT007H.grib2 2026-05-03 14:54 714K
20260503T12Z_MSC_RDPS_VerticalWindShear_EtaL-6500_RLatLon0.09_PT007H.grib2 2026-05-03 14:54 1.2M
20260503T12Z_MSC_RDPS_WindChill_Sfc_RLatLon0.09_PT007H.grib2 2026-05-03 14:54 1.1M
20260503T12Z_MSC_RDPS_WindDir_AGL-10m_RLatLon0.09_PT007H.grib2 2026-05-03 14:54 961K
20260503T12Z_MSC_RDPS_WindDir_AGL-120m_RLatLon0.09_PT007H.grib2 2026-05-03 14:54 608K
20260503T12Z_MSC_RDPS_WindDir_AGL-40m_RLatLon0.09_PT007H.grib2 2026-05-03 14:54 629K
20260503T12Z_MSC_RDPS_WindDir_AGL-80m_RLatLon0.09_PT007H.grib2 2026-05-03 14:54 616K
20260503T12Z_MSC_RDPS_WindDir_IsbL-0001_RLatLon0.09_PT007H.grib2 2026-05-03 14:54 295K
20260503T12Z_MSC_RDPS_WindDir_IsbL-0005_RLatLon0.09_PT007H.grib2 2026-05-03 14:54 368K
20260503T12Z_MSC_RDPS_WindDir_IsbL-0010_RLatLon0.09_PT007H.grib2 2026-05-03 14:54 370K
20260503T12Z_MSC_RDPS_WindDir_IsbL-0020_RLatLon0.09_PT007H.grib2 2026-05-03 14:54 412K
20260503T12Z_MSC_RDPS_WindDir_IsbL-0030_RLatLon0.09_PT007H.grib2 2026-05-03 14:54 404K
20260503T12Z_MSC_RDPS_WindDir_IsbL-0050_RLatLon0.09_PT007H.grib2 2026-05-03 14:54 408K
20260503T12Z_MSC_RDPS_WindDir_IsbL-0100_RLatLon0.09_PT007H.grib2 2026-05-03 14:54 408K
20260503T12Z_MSC_RDPS_WindDir_IsbL-0150_RLatLon0.09_PT007H.grib2 2026-05-03 14:54 415K
20260503T12Z_MSC_RDPS_WindDir_IsbL-0175_RLatLon0.09_PT007H.grib2 2026-05-03 14:54 437K
20260503T12Z_MSC_RDPS_WindDir_IsbL-0200_RLatLon0.09_PT007H.grib2 2026-05-03 14:54 455K
20260503T12Z_MSC_RDPS_WindDir_IsbL-0225_RLatLon0.09_PT007H.grib2 2026-05-03 14:54 460K
20260503T12Z_MSC_RDPS_WindDir_IsbL-0250_RLatLon0.09_PT007H.grib2 2026-05-03 14:54 462K
20260503T12Z_MSC_RDPS_WindDir_IsbL-0275_RLatLon0.09_PT007H.grib2 2026-05-03 14:54 481K
20260503T12Z_MSC_RDPS_WindDir_IsbL-0300_RLatLon0.09_PT007H.grib2 2026-05-03 14:54 478K
20260503T12Z_MSC_RDPS_WindDir_IsbL-0350_RLatLon0.09_PT007H.grib2 2026-05-03 14:54 500K
20260503T12Z_MSC_RDPS_WindDir_IsbL-0400_RLatLon0.09_PT007H.grib2 2026-05-03 14:54 517K
20260503T12Z_MSC_RDPS_WindDir_IsbL-0450_RLatLon0.09_PT007H.grib2 2026-05-03 14:54 527K
20260503T12Z_MSC_RDPS_WindDir_IsbL-0500_RLatLon0.09_PT007H.grib2 2026-05-03 14:54 534K
20260503T12Z_MSC_RDPS_WindDir_IsbL-0550_RLatLon0.09_PT007H.grib2 2026-05-03 14:54 548K
20260503T12Z_MSC_RDPS_WindDir_IsbL-0600_RLatLon0.09_PT007H.grib2 2026-05-03 14:54 572K
20260503T12Z_MSC_RDPS_WindDir_IsbL-0650_RLatLon0.09_PT007H.grib2 2026-05-03 14:54 613K
20260503T12Z_MSC_RDPS_WindDir_IsbL-0700_RLatLon0.09_PT007H.grib2 2026-05-03 14:54 657K
20260503T12Z_MSC_RDPS_WindDir_IsbL-0750_RLatLon0.09_PT007H.grib2 2026-05-03 14:54 707K
20260503T12Z_MSC_RDPS_WindDir_IsbL-0800_RLatLon0.09_PT007H.grib2 2026-05-03 14:54 772K
20260503T12Z_MSC_RDPS_WindDir_IsbL-0850_RLatLon0.09_PT007H.grib2 2026-05-03 14:54 857K
20260503T12Z_MSC_RDPS_WindDir_IsbL-0875_RLatLon0.09_PT007H.grib2 2026-05-03 14:54 887K
20260503T12Z_MSC_RDPS_WindDir_IsbL-0900_RLatLon0.09_PT007H.grib2 2026-05-03 14:54 899K
20260503T12Z_MSC_RDPS_WindDir_IsbL-0925_RLatLon0.09_PT007H.grib2 2026-05-03 14:54 907K
20260503T12Z_MSC_RDPS_WindDir_IsbL-0950_RLatLon0.09_PT007H.grib2 2026-05-03 14:54 907K
20260503T12Z_MSC_RDPS_WindDir_IsbL-0970_RLatLon0.09_PT007H.grib2 2026-05-03 14:54 915K
20260503T12Z_MSC_RDPS_WindDir_IsbL-0985_RLatLon0.09_PT007H.grib2 2026-05-03 14:54 924K
20260503T12Z_MSC_RDPS_WindDir_IsbL-1000_RLatLon0.09_PT007H.grib2 2026-05-03 14:54 937K
20260503T12Z_MSC_RDPS_WindDir_IsbL-1015_RLatLon0.09_PT007H.grib2 2026-05-03 14:54 953K
20260503T12Z_MSC_RDPS_WindGust-Max_AGL-10m_RLatLon0.09_PT007H.grib2 2026-05-03 14:54 1.0M
20260503T12Z_MSC_RDPS_WindGust-Min_AGL-10m_RLatLon0.09_PT007H.grib2 2026-05-03 14:54 1.0M
20260503T12Z_MSC_RDPS_WindGust_AGL-10m_RLatLon0.09_PT007H.grib2 2026-05-03 14:54 1.0M
20260503T12Z_MSC_RDPS_WindSpeed_AGL-10m_RLatLon0.09_PT007H.grib2 2026-05-03 14:54 841K
20260503T12Z_MSC_RDPS_WindSpeed_AGL-120m_RLatLon0.09_PT007H.grib2 2026-05-03 14:54 535K
20260503T12Z_MSC_RDPS_WindSpeed_AGL-40m_RLatLon0.09_PT007H.grib2 2026-05-03 14:54 540K
20260503T12Z_MSC_RDPS_WindSpeed_AGL-80m_RLatLon0.09_PT007H.grib2 2026-05-03 14:54 536K
20260503T12Z_MSC_RDPS_WindSpeed_IsbL-0001_RLatLon0.09_PT007H.grib2 2026-05-03 14:54 250K
20260503T12Z_MSC_RDPS_WindSpeed_IsbL-0005_RLatLon0.09_PT007H.grib2 2026-05-03 14:54 336K
20260503T12Z_MSC_RDPS_WindSpeed_IsbL-0010_RLatLon0.09_PT007H.grib2 2026-05-03 14:54 385K
20260503T12Z_MSC_RDPS_WindSpeed_IsbL-0020_RLatLon0.09_PT007H.grib2 2026-05-03 14:54 311K
20260503T12Z_MSC_RDPS_WindSpeed_IsbL-0030_RLatLon0.09_PT007H.grib2 2026-05-03 14:54 312K
20260503T12Z_MSC_RDPS_WindSpeed_IsbL-0050_RLatLon0.09_PT007H.grib2 2026-05-03 14:54 341K
20260503T12Z_MSC_RDPS_WindSpeed_IsbL-0100_RLatLon0.09_PT007H.grib2 2026-05-03 14:54 474K
20260503T12Z_MSC_RDPS_WindSpeed_IsbL-0150_RLatLon0.09_PT007H.grib2 2026-05-03 14:54 383K
20260503T12Z_MSC_RDPS_WindSpeed_IsbL-0175_RLatLon0.09_PT007H.grib2 2026-05-03 14:54 429K
20260503T12Z_MSC_RDPS_WindSpeed_IsbL-0200_RLatLon0.09_PT007H.grib2 2026-05-03 14:54 445K
20260503T12Z_MSC_RDPS_WindSpeed_IsbL-0225_RLatLon0.09_PT007H.grib2 2026-05-03 14:54 455K
20260503T12Z_MSC_RDPS_WindSpeed_IsbL-0250_RLatLon0.09_PT007H.grib2 2026-05-03 14:54 456K
20260503T12Z_MSC_RDPS_WindSpeed_IsbL-0275_RLatLon0.09_PT007H.grib2 2026-05-03 14:54 472K
20260503T12Z_MSC_RDPS_WindSpeed_IsbL-0300_RLatLon0.09_PT007H.grib2 2026-05-03 14:54 468K
20260503T12Z_MSC_RDPS_WindSpeed_IsbL-0350_RLatLon0.09_PT007H.grib2 2026-05-03 14:54 479K
20260503T12Z_MSC_RDPS_WindSpeed_IsbL-0400_RLatLon0.09_PT007H.grib2 2026-05-03 14:54 464K
20260503T12Z_MSC_RDPS_WindSpeed_IsbL-0450_RLatLon0.09_PT007H.grib2 2026-05-03 14:54 466K
20260503T12Z_MSC_RDPS_WindSpeed_IsbL-0500_RLatLon0.09_PT007H.grib2 2026-05-03 14:54 465K
20260503T12Z_MSC_RDPS_WindSpeed_IsbL-0550_RLatLon0.09_PT007H.grib2 2026-05-03 14:54 467K
20260503T12Z_MSC_RDPS_WindSpeed_IsbL-0600_RLatLon0.09_PT007H.grib2 2026-05-03 14:54 595K
20260503T12Z_MSC_RDPS_WindSpeed_IsbL-0650_RLatLon0.09_PT007H.grib2 2026-05-03 14:54 616K
20260503T12Z_MSC_RDPS_WindSpeed_IsbL-0700_RLatLon0.09_PT007H.grib2 2026-05-03 14:54 642K
20260503T12Z_MSC_RDPS_WindSpeed_IsbL-0750_RLatLon0.09_PT007H.grib2 2026-05-03 14:54 675K
20260503T12Z_MSC_RDPS_WindSpeed_IsbL-0800_RLatLon0.09_PT007H.grib2 2026-05-03 14:54 723K
20260503T12Z_MSC_RDPS_WindSpeed_IsbL-0850_RLatLon0.09_PT007H.grib2 2026-05-03 14:54 778K
20260503T12Z_MSC_RDPS_WindSpeed_IsbL-0875_RLatLon0.09_PT007H.grib2 2026-05-03 14:54 796K
20260503T12Z_MSC_RDPS_WindSpeed_IsbL-0900_RLatLon0.09_PT007H.grib2 2026-05-03 14:54 804K
20260503T12Z_MSC_RDPS_WindSpeed_IsbL-0925_RLatLon0.09_PT007H.grib2 2026-05-03 14:54 862K
20260503T12Z_MSC_RDPS_WindSpeed_IsbL-0950_RLatLon0.09_PT007H.grib2 2026-05-03 14:54 862K
20260503T12Z_MSC_RDPS_WindSpeed_IsbL-0970_RLatLon0.09_PT007H.grib2 2026-05-03 14:54 862K
20260503T12Z_MSC_RDPS_WindSpeed_IsbL-0985_RLatLon0.09_PT007H.grib2 2026-05-03 14:54 858K
20260503T12Z_MSC_RDPS_WindSpeed_IsbL-1000_RLatLon0.09_PT007H.grib2 2026-05-03 14:54 850K
20260503T12Z_MSC_RDPS_WindSpeed_IsbL-1015_RLatLon0.09_PT007H.grib2 2026-05-03 14:54 840K
20260503T12Z_MSC_RDPS_WindU_AGL-10m_RLatLon0.09_PT007H.grib2 2026-05-03 14:54 435K
20260503T12Z_MSC_RDPS_WindU_AGL-120m_RLatLon0.09_PT007H.grib2 2026-05-03 14:54 417K
20260503T12Z_MSC_RDPS_WindU_AGL-40m_RLatLon0.09_PT007H.grib2 2026-05-03 14:54 419K
20260503T12Z_MSC_RDPS_WindU_AGL-80m_RLatLon0.09_PT007H.grib2 2026-05-03 14:54 418K
20260503T12Z_MSC_RDPS_WindU_IsbL-0001_RLatLon0.09_PT007H.grib2 2026-05-03 14:54 289K
20260503T12Z_MSC_RDPS_WindU_IsbL-0005_RLatLon0.09_PT007H.grib2 2026-05-03 14:54 274K
20260503T12Z_MSC_RDPS_WindU_IsbL-0010_RLatLon0.09_PT007H.grib2 2026-05-03 14:54 287K
20260503T12Z_MSC_RDPS_WindU_IsbL-0020_RLatLon0.09_PT007H.grib2 2026-05-03 14:54 302K
20260503T12Z_MSC_RDPS_WindU_IsbL-0030_RLatLon0.09_PT007H.grib2 2026-05-03 14:54 345K
20260503T12Z_MSC_RDPS_WindU_IsbL-0050_RLatLon0.09_PT007H.grib2 2026-05-03 14:54 339K
20260503T12Z_MSC_RDPS_WindU_IsbL-0100_RLatLon0.09_PT007H.grib2 2026-05-03 14:54 430K
20260503T12Z_MSC_RDPS_WindU_IsbL-0150_RLatLon0.09_PT007H.grib2 2026-05-03 14:54 398K
20260503T12Z_MSC_RDPS_WindU_IsbL-0175_RLatLon0.09_PT007H.grib2 2026-05-03 14:54 420K
20260503T12Z_MSC_RDPS_WindU_IsbL-0200_RLatLon0.09_PT007H.grib2 2026-05-03 14:54 338K
20260503T12Z_MSC_RDPS_WindU_IsbL-0225_RLatLon0.09_PT007H.grib2 2026-05-03 14:54 346K
20260503T12Z_MSC_RDPS_WindU_IsbL-0250_RLatLon0.09_PT007H.grib2 2026-05-03 14:54 346K
20260503T12Z_MSC_RDPS_WindU_IsbL-0275_RLatLon0.09_PT007H.grib2 2026-05-03 14:54 360K
20260503T12Z_MSC_RDPS_WindU_IsbL-0300_RLatLon0.09_PT007H.grib2 2026-05-03 14:54 457K
20260503T12Z_MSC_RDPS_WindU_IsbL-0350_RLatLon0.09_PT007H.grib2 2026-05-03 14:54 466K
20260503T12Z_MSC_RDPS_WindU_IsbL-0400_RLatLon0.09_PT007H.grib2 2026-05-03 14:54 468K
20260503T12Z_MSC_RDPS_WindU_IsbL-0450_RLatLon0.09_PT007H.grib2 2026-05-03 14:54 469K
20260503T12Z_MSC_RDPS_WindU_IsbL-0500_RLatLon0.09_PT007H.grib2 2026-05-03 14:54 471K
20260503T12Z_MSC_RDPS_WindU_IsbL-0550_RLatLon0.09_PT007H.grib2 2026-05-03 14:54 456K
20260503T12Z_MSC_RDPS_WindU_IsbL-0600_RLatLon0.09_PT007H.grib2 2026-05-03 14:54 466K
20260503T12Z_MSC_RDPS_WindU_IsbL-0650_RLatLon0.09_PT007H.grib2 2026-05-03 14:54 485K
20260503T12Z_MSC_RDPS_WindU_IsbL-0700_RLatLon0.09_PT007H.grib2 2026-05-03 14:54 524K
20260503T12Z_MSC_RDPS_WindU_IsbL-0750_RLatLon0.09_PT007H.grib2 2026-05-03 14:54 553K
20260503T12Z_MSC_RDPS_WindU_IsbL-0800_RLatLon0.09_PT007H.grib2 2026-05-03 14:54 592K
20260503T12Z_MSC_RDPS_WindU_IsbL-0850_RLatLon0.09_PT007H.grib2 2026-05-03 14:54 639K
20260503T12Z_MSC_RDPS_WindU_IsbL-0875_RLatLon0.09_PT007H.grib2 2026-05-03 14:54 654K
20260503T12Z_MSC_RDPS_WindU_IsbL-0900_RLatLon0.09_PT007H.grib2 2026-05-03 14:54 658K
20260503T12Z_MSC_RDPS_WindU_IsbL-0925_RLatLon0.09_PT007H.grib2 2026-05-03 14:54 665K
20260503T12Z_MSC_RDPS_WindU_IsbL-0950_RLatLon0.09_PT007H.grib2 2026-05-03 14:54 662K
20260503T12Z_MSC_RDPS_WindU_IsbL-0970_RLatLon0.09_PT007H.grib2 2026-05-03 14:54 657K
20260503T12Z_MSC_RDPS_WindU_IsbL-0985_RLatLon0.09_PT007H.grib2 2026-05-03 14:54 655K
20260503T12Z_MSC_RDPS_WindU_IsbL-1000_RLatLon0.09_PT007H.grib2 2026-05-03 14:54 789K
20260503T12Z_MSC_RDPS_WindU_IsbL-1015_RLatLon0.09_PT007H.grib2 2026-05-03 14:54 783K
20260503T12Z_MSC_RDPS_WindV_AGL-10m_RLatLon0.09_PT007H.grib2 2026-05-03 14:54 433K
20260503T12Z_MSC_RDPS_WindV_AGL-120m_RLatLon0.09_PT007H.grib2 2026-05-03 14:54 416K
20260503T12Z_MSC_RDPS_WindV_AGL-40m_RLatLon0.09_PT007H.grib2 2026-05-03 14:54 536K
20260503T12Z_MSC_RDPS_WindV_AGL-80m_RLatLon0.09_PT007H.grib2 2026-05-03 14:54 533K
20260503T12Z_MSC_RDPS_WindV_IsbL-0001_RLatLon0.09_PT007H.grib2 2026-05-03 14:54 242K
20260503T12Z_MSC_RDPS_WindV_IsbL-0005_RLatLon0.09_PT007H.grib2 2026-05-03 14:54 276K
20260503T12Z_MSC_RDPS_WindV_IsbL-0010_RLatLon0.09_PT007H.grib2 2026-05-03 14:54 288K
20260503T12Z_MSC_RDPS_WindV_IsbL-0020_RLatLon0.09_PT007H.grib2 2026-05-03 14:54 304K
20260503T12Z_MSC_RDPS_WindV_IsbL-0030_RLatLon0.09_PT007H.grib2 2026-05-03 14:54 307K
20260503T12Z_MSC_RDPS_WindV_IsbL-0050_RLatLon0.09_PT007H.grib2 2026-05-03 14:54 334K
20260503T12Z_MSC_RDPS_WindV_IsbL-0100_RLatLon0.09_PT007H.grib2 2026-05-03 14:54 332K
20260503T12Z_MSC_RDPS_WindV_IsbL-0150_RLatLon0.09_PT007H.grib2 2026-05-03 14:54 399K
20260503T12Z_MSC_RDPS_WindV_IsbL-0175_RLatLon0.09_PT007H.grib2 2026-05-03 14:54 327K
20260503T12Z_MSC_RDPS_WindV_IsbL-0200_RLatLon0.09_PT007H.grib2 2026-05-03 14:54 340K
20260503T12Z_MSC_RDPS_WindV_IsbL-0225_RLatLon0.09_PT007H.grib2 2026-05-03 14:54 371K
20260503T12Z_MSC_RDPS_WindV_IsbL-0250_RLatLon0.09_PT007H.grib2 2026-05-03 14:54 373K
20260503T12Z_MSC_RDPS_WindV_IsbL-0275_RLatLon0.09_PT007H.grib2 2026-05-03 14:54 383K
20260503T12Z_MSC_RDPS_WindV_IsbL-0300_RLatLon0.09_PT007H.grib2 2026-05-03 14:54 378K
20260503T12Z_MSC_RDPS_WindV_IsbL-0350_RLatLon0.09_PT007H.grib2 2026-05-03 14:54 361K
20260503T12Z_MSC_RDPS_WindV_IsbL-0400_RLatLon0.09_PT007H.grib2 2026-05-03 14:54 363K
20260503T12Z_MSC_RDPS_WindV_IsbL-0450_RLatLon0.09_PT007H.grib2 2026-05-03 14:54 365K
20260503T12Z_MSC_RDPS_WindV_IsbL-0500_RLatLon0.09_PT007H.grib2 2026-05-03 14:54 366K
20260503T12Z_MSC_RDPS_WindV_IsbL-0550_RLatLon0.09_PT007H.grib2 2026-05-03 14:54 471K
20260503T12Z_MSC_RDPS_WindV_IsbL-0600_RLatLon0.09_PT007H.grib2 2026-05-03 14:54 480K
20260503T12Z_MSC_RDPS_WindV_IsbL-0650_RLatLon0.09_PT007H.grib2 2026-05-03 14:54 499K
20260503T12Z_MSC_RDPS_WindV_IsbL-0700_RLatLon0.09_PT007H.grib2 2026-05-03 14:54 523K
20260503T12Z_MSC_RDPS_WindV_IsbL-0750_RLatLon0.09_PT007H.grib2 2026-05-03 14:54 551K
20260503T12Z_MSC_RDPS_WindV_IsbL-0800_RLatLon0.09_PT007H.grib2 2026-05-03 14:54 591K
20260503T12Z_MSC_RDPS_WindV_IsbL-0850_RLatLon0.09_PT007H.grib2 2026-05-03 14:54 636K
20260503T12Z_MSC_RDPS_WindV_IsbL-0875_RLatLon0.09_PT007H.grib2 2026-05-03 14:54 651K
20260503T12Z_MSC_RDPS_WindV_IsbL-0900_RLatLon0.09_PT007H.grib2 2026-05-03 14:54 650K
20260503T12Z_MSC_RDPS_WindV_IsbL-0925_RLatLon0.09_PT007H.grib2 2026-05-03 14:54 658K
20260503T12Z_MSC_RDPS_WindV_IsbL-0950_RLatLon0.09_PT007H.grib2 2026-05-03 14:54 656K
20260503T12Z_MSC_RDPS_WindV_IsbL-0970_RLatLon0.09_PT007H.grib2 2026-05-03 14:54 656K
20260503T12Z_MSC_RDPS_WindV_IsbL-0985_RLatLon0.09_PT007H.grib2 2026-05-03 14:54 654K
20260503T12Z_MSC_RDPS_WindV_IsbL-1000_RLatLon0.09_PT007H.grib2 2026-05-03 14:54 787K
20260503T12Z_MSC_RDPS_WindV_IsbL-1015_RLatLon0.09_PT007H.grib2 2026-05-03 14:54 780K